Sunshine Coast Airport Observation History
Time Wind Speed Temp Pressure Rel. Hum Rain
19/07:00pm SW 4-6 kts 16.0°c 1019.0 hPa 77% 0.2mm
19/06:30pm W 5-8 kts 16.8°c 1018.9 hPa 74% 0.2mm
19/06:00pm SE 9-11 kts 19.6°c 1018.3 hPa 66% 0.2mm
19/05:30pm SE 8-11 kts 19.4°c 1018.0 hPa 69% 0.2mm
19/05:00pm SE 8-10 kts 19.6°c 1017.7 hPa 62% 0.2mm
19/04:30pm SE 8-11 kts 20.0°c 1017.4 hPa 61% 0.2mm
19/04:00pm SE 9-12 kts 20.6°c 1017.3 hPa 57% 0.2mm
19/03:30pm SE 10-13 kts 21.0°c 1017.1 hPa 52% 0.2mm
19/03:00pm SE 9-12 kts 21.1°c 1016.8 hPa 57% 0.2mm
19/02:30pm SE 10-11 kts 21.3°c 1016.6 hPa 57% 0.2mm
19/02:00pm SE 9-11 kts 21.5°c 1016.6 hPa 53% 0.2mm
19/01:30pm SE 9-12 kts 21.4°c 1016.7 hPa 55% 0.2mm
19/01:00pm S 8-11 kts 22.1°c 1016.9 hPa 40% 0.2mm
19/12:30pm S 7-11 kts 21.8°c 1017.1 hPa 43% 0.2mm
19/12:00pm S 7-11 kts 22.3°c 1017.3 hPa 46% 0.0mm
19/11:30am S 8-11 kts 21.8°c 1017.7 hPa 45% 0.0mm
19/11:00am SSW 7-10 kts 21.2°c 1018.2 hPa 46% 0.0mm
19/10:30am SSW 7-10 kts 20.6°c 1018.4 hPa 48% 0.0mm
19/10:00am SW 6-8 kts 19.5°c 1018.7 hPa 58% 0.0mm
19/09:30am W 6-8 kts 17.8°c 1018.6 hPa 65% 0.0mm
19/09:00am WNW 4-5 kts 15.7°c 1018.8 hPa 74% 0.2mm
19/08:30am WNW 4-5 kts 13.5°c 1018.5 hPa 78% 0.2mm
19/08:00am WNW 5-7 kts 11.5°c 1018.2 hPa 83% 0.2mm
19/07:30am W 5-6 kts 9.9°c 1017.8 hPa 88% 0.2mm
19/07:00am WNW 5-7 kts 8.8°c 1017.6 hPa 91% 0.2mm
19/06:30am W 6 kts 8.3°c 1017.3 hPa 90% 0.2mm
19/06:00am W 5-6 kts 8.7°c 1016.9 hPa 90% 0.2mm
19/05:30am WNW 5-6 kts 8.7°c 1016.5 hPa 90% 0.2mm
19/05:00am WNW 5-6 kts 8.7°c 1016.3 hPa 89% 0.2mm
19/04:30am WNW 7-8 kts 8.9°c 1016.2 hPa 90% 0.2mm
19/04:00am NW 7-9 kts 8.8°c 1016.1 hPa 90% 0.2mm
19/03:30am NW 7-9 kts 9.1°c 1016.1 hPa 91% 0.2mm
19/03:00am NW 7-8 kts 9.1°c 1016.3 hPa 91% 0.2mm
19/02:30am WNW 7 kts 9.3°c 1016.3 hPa 91% 0.2mm
19/02:00am WNW 6-7 kts 9.4°c 1016.5 hPa 91% 0.2mm
19/01:30am WNW 5-6 kts 9.6°c 1016.7 hPa 90% 0.2mm
19/01:00am WNW 5-6 kts 9.7°c 1017.1 hPa 90% 0.2mm
19/12:30am WNW 6-7 kts 10.0°c 1017.0 hPa 91% 0.2mm
19/12:00am WNW 6-7 kts 10.2°c 1017.2 hPa 91% 0.2mm
Time Wind Speed Temp Pressure Rel. Hum Rain
18/11:30pm WNW 7-8 kts 10.1°c 1017.3 hPa 91% 0.2mm
18/11:00pm WNW 6-8 kts 10.5°c 1017.5 hPa 91% 0.2mm
18/10:30pm W 6-7 kts 10.7°c 1017.6 hPa 92% 0.2mm
18/10:00pm W 5-7 kts 10.8°c 1017.7 hPa 92% 0.2mm
18/09:30pm W 5-6 kts 10.8°c 1017.7 hPa 90% 0.2mm
18/09:00pm W 4-5 kts 11.6°c 1017.7 hPa 90% 0.2mm
18/08:30pm W 5 kts 11.9°c 1017.7 hPa 89% 0.2mm
18/08:00pm WNW 4-6 kts 12.3°c 1017.7 hPa 90% 0.2mm
18/07:30pm WNW 6 kts 11.8°c 1017.7 hPa 88% 0.2mm
18/07:00pm WNW 6 kts 12.4°c 1017.6 hPa 88% 0.2mm
18/06:30pm NW 3-4 kts 13.4°c 1017.0 hPa 86% 0.2mm
18/06:00pm NW 4-5 kts 14.0°c 1016.6 hPa 81% 0.2mm
18/05:30pm NNE 3-4 kts 15.5°c 1016.4 hPa 67% 0.2mm
18/05:00pm NNE 3-4 kts 17.5°c 1016.0 hPa 59% 0.2mm
18/04:30pm E 4-5 kts 19.3°c 1015.8 hPa 54% 0.2mm
18/04:00pm ENE 5-6 kts 19.9°c 1015.6 hPa 51% 0.2mm
18/03:30pm E 5-6 kts 20.2°c 1015.1 hPa 50% 0.2mm
18/03:00pm ENE 5-7 kts 20.2°c 1015.0 hPa 49% 0.2mm
18/02:30pm E 5-7 kts 20.2°c 1015.2 hPa 48% 0.2mm
18/02:00pm ENE 6-8 kts 20.4°c 1015.3 hPa 47% 0.2mm
18/01:30pm E 7-9 kts 20.9°c 1015.7 hPa 49% 0.2mm
18/01:00pm ESE 7-9 kts 20.4°c 1015.9 hPa 51% 0.2mm
18/12:30pm ESE 8-10 kts 20.5°c 1016.2 hPa 47% 0.2mm
18/12:00pm ESE 7-9 kts 20.1°c 1016.6 hPa 42% 0.2mm
18/11:30am SE 6-8 kts 19.9°c 1017.0 hPa 44% 0.2mm
18/11:00am S 4-7 kts 19.5°c 1017.6 hPa 45% 0.0mm
18/10:30am SSW 5-8 kts 18.7°c 1017.8 hPa 51% 0.0mm
18/10:00am WSW 5-7 kts 17.3°c 1018.2 hPa 57% 0.0mm
18/09:30am WNW 5-6 kts 16.0°c 1018.3 hPa 67% 0.0mm
18/09:00am NW 5-6 kts 14.0°c 1018.3 hPa 73% 0.2mm
18/08:30am W 5-6 kts 12.2°c 1018.0 hPa 75% 0.2mm
18/08:00am WNW 6-9 kts 10.0°c 1017.9 hPa 84% 0.2mm
18/07:30am WNW 7-9 kts 8.5°c 1017.7 hPa 89% 0.2mm
18/07:00am W 5 kts 7.6°c 1017.4 hPa 90% 0.2mm
18/06:30am W 5-7 kts 7.3°c 1017.2 hPa 90% 0.2mm
18/06:00am WNW 5-6 kts 7.3°c 1017.0 hPa 90% 0.2mm
18/05:30am WNW 6-8 kts 7.6°c 1016.6 hPa 89% 0.2mm
18/05:00am WNW 6-7 kts 7.7°c 1016.3 hPa 89% 0.2mm
18/04:30am WNW 7 kts 7.6°c 1016.2 hPa 88% 0.2mm
18/04:00am WNW 7-8 kts 8.1°c 1016.1 hPa 87% 0.2mm
18/03:30am NW 7-9 kts 8.1°c 1016.2 hPa 88% 0.2mm
18/03:00am WNW 5-6 kts 8.0°c 1016.4 hPa 86% 0.2mm
18/02:30am WNW 6-8 kts 8.7°c 1016.6 hPa 86% 0.2mm
18/02:00am WNW 5-7 kts 8.6°c 1016.7 hPa 85% 0.2mm
18/01:30am WNW 4-5 kts 8.5°c 1017.0 hPa 86% 0.2mm
18/01:00am NW 6-7 kts 9.0°c 1017.1 hPa 88% 0.2mm
18/12:30am W 4 kts 9.2°c 1017.1 hPa 87% 0.2mm
18/12:00am WSW 4-6 kts 9.2°c 1017.3 hPa 84% 0.2mm
Time Wind Speed Temp Pressure Rel. Hum Rain
17/11:30pm WNW 4-5 kts 9.9°c 1017.6 hPa 88% 0.2mm
17/11:00pm WNW 5-6 kts 9.9°c 1017.5 hPa 87% 0.2mm
17/10:30pm NW 6-7 kts 9.6°c 1017.7 hPa 85% 0.2mm
17/10:00pm WSW 5-7 kts 11.6°c 1017.7 hPa 79% 0.2mm
17/09:30pm WNW 5-6 kts 10.4°c 1017.6 hPa 87% 0.2mm
17/09:00pm WNW 5 kts 10.5°c 1017.4 hPa 85% 0.2mm
17/08:30pm WNW 5-6 kts 11.1°c 1017.5 hPa 84% 0.2mm
17/08:00pm WNW 4-6 kts 11.2°c 1017.4 hPa 81% 0.2mm
17/07:30pm WNW 7 kts 12.2°c 1017.2 hPa 78% 0.2mm
17/07:00pm WNW 4-5 kts 12.9°c 1017.1 hPa 77% 0.2mm
17/06:30pm WNW 4-6 kts 13.5°c 1016.6 hPa 69% 0.2mm
17/06:00pm W 4-5 kts 14.1°c 1016.2 hPa 64% 0.2mm
17/05:30pm SSW 5 kts 16.5°c 1015.9 hPa 56% 0.2mm
17/05:00pm SW 6-7 kts 18.4°c 1015.5 hPa 47% 0.2mm
17/04:30pm SW 6-7 kts 20.0°c 1015.3 hPa 36% 0.2mm
17/04:00pm WSW 8-10 kts 20.8°c 1015.1 hPa 36% 0.2mm
17/03:30pm WSW 9-11 kts 21.3°c 1014.9 hPa 32% 0.2mm
17/03:00pm WSW 10-13 kts 21.3°c 1014.7 hPa 33% 0.2mm
17/02:30pm WSW 11-14 kts 21.3°c 1014.7 hPa 31% 0.2mm
17/02:00pm W 11-14 kts 21.4°c 1014.7 hPa 33% 0.2mm
17/01:30pm WSW 12-16 kts 20.7°c 1015.0 hPa 36% 0.2mm
17/01:00pm WSW 15-20 kts 20.8°c 1015.4 hPa 36% 0.2mm
17/12:30pm WSW 12-20 kts 20.7°c 1015.6 hPa 37% 0.2mm
17/12:00pm SW 16-21 kts 20.1°c 1016.0 hPa 38% 0.2mm
17/11:30am W 13-18 kts 20.7°c 1016.3 hPa 43% 0.2mm
17/11:00am WSW 9-13 kts 19.9°c 1016.9 hPa 49% 0.2mm
17/10:30am WSW 10-13 kts 19.4°c 1017.2 hPa 50% 0.0mm
17/10:00am WSW 10-15 kts 18.4°c 1017.5 hPa 54% 0.0mm
17/09:30am WSW 12-15 kts 17.2°c 1017.7 hPa 56% 0.0mm
17/09:00am WSW 9-12 kts 17.4°c 1017.7 hPa 60% 34.0mm
17/08:30am SW 6-9 kts 17.3°c 1017.6 hPa 66% 34.0mm
17/08:00am SW 5-7 kts 16.4°c 1017.3 hPa 77% 34.0mm
17/07:30am WSW 4-6 kts 16.1°c 1017.0 hPa 85% 34.0mm
17/07:00am WSW 4 kts 16.1°c 1016.7 hPa 96% 34.0mm
17/06:30am SW 2-3 kts 16.0°c 1016.4 hPa 97% 34.0mm
17/06:00am SW 3-4 kts 16.3°c 1016.0 hPa 98% 34.0mm
17/05:30am W 5-6 kts 16.4°c 1015.5 hPa 98% 34.0mm
17/05:00am W 4-6 kts 16.7°c 1015.2 hPa 98% 34.0mm
17/04:30am W 4-5 kts 16.8°c 1015.0 hPa 98% 34.0mm
17/04:00am WNW 4-5 kts 16.9°c 1014.9 hPa 98% 34.0mm
17/03:30am N 5 kts 16.5°c 1015.2 hPa 97% 34.0mm
17/03:00am SW 3-4 kts 16.9°c 1015.2 hPa 98% 34.0mm
17/02:30am SW 3-5 kts 17.0°c 1015.4 hPa 98% 33.8mm
17/02:22am SW 5-6 kts 17.0°c 1015.4 hPa 97% 33.8mm
17/02:05am WSW 4-6 kts 17.1°c 1015.6 hPa 98% 33.0mm
17/02:00am W 5-8 kts 17.1°c 1015.8 hPa 98% 32.6mm
17/01:53am WNW 8-11 kts 17.1°c 1016.0 hPa 98% 31.4mm
17/01:30am W 5-8 kts 17.1°c 1015.9 hPa 98% 26.4mm
17/01:22am WSW 6-8 kts 17.2°c 1015.8 hPa 98% 23.8mm
17/01:00am W 5 kts 17.2°c 1015.8 hPa 98% 21.4mm
17/12:30am WSW 5-6 kts 17.1°c 1016.0 hPa 98% 21.4mm
17/12:15am SW 5-7 kts 17.1°c 1016.1 hPa 98% 21.4mm
17/12:00am WSW 5-7 kts 17.1°c 1016.4 hPa 97% 21.4mm